Location: Fort Wayne
(41.1310°N, 85.1290°W)
Time: 10:28:23
(UTC-04:00)

Tiros 1 despin weight - Visible Passes

Search period start: 02 October 2014 00:00
Search period end: 12 October 2014 00:00
Orbit: 601 x 652 km, 48.2° (Epoch: 01 October)

Date Brightness Start Highest point End Pass type
(mag) Time Alt. Az. Time Alt. Az. Time Alt. Az.
02 Oct ? 20:53:31 10° WNW 20:57:33 33° N 20:59:12 25° NE visible
02 Oct ? 22:35:26 10° WNW 22:36:26 16° NW 22:36:26 16° NW visible
03 Oct ? 21:13:01 10° WNW 21:17:10 37° NNE 21:17:33 37° NNE visible
03 Oct ? 22:54:45 10° WNW 22:54:47 10° WNW 22:54:47 10° WNW visible
04 Oct ? 19:50:18 10° WNW 19:54:20 32° N 19:58:21 10° ENE visible
04 Oct ? 21:32:22 10° WNW 21:35:55 44° NNW 21:35:55 44° NNW visible
05 Oct ? 20:09:52 10° WNW 20:13:57 35° N 20:17:04 15° ENE visible
05 Oct ? 21:51:39 10° WNW 21:54:18 35° NW 21:54:18 35° NW visible
06 Oct ? 20:29:15 10° WNW 20:33:31 43° NNE 20:35:29 27° ENE visible
06 Oct ? 22:11:00 10° WNW 22:12:43 23° WNW 22:12:43 23° WNW visible
07 Oct ? 20:48:33 10° WNW 20:52:58 64° NNE 20:53:57 49° E visible
07 Oct ? 22:30:36 10° WNW 22:31:11 13° W 22:31:11 13° W visible
08 Oct ? 21:07:50 10° WNW 21:12:17 76° SSW 21:12:29 74° S visible
09 Oct ? 19:45:25 10° WNW 19:49:47 53° NNE 19:53:50 12° E visible
09 Oct ? 21:27:18 10° WNW 21:31:05 39° SW 21:31:05 39° SW visible
10 Oct ? 20:04:41 10° WNW 20:09:09 86° NNE 20:12:32 17° ESE visible
10 Oct ? 21:47:11 10° W 21:49:47 20° WSW 21:49:47 20° WSW visible
11 Oct ? 20:24:02 10° WNW 20:28:22 52° SW 20:31:22 19° SE visible
